Weather History for KBMQ - August, 2013

Change the Weather History Date:

Tuesday, August 27, 2013

  Actual Average Record
Temperature  
Mean Temperature 76 °F -  
Max Temperature 84 °F 90 °F 106 °F (2011)
Min Temperature 73 °F 70 °F 64 °F (1997)
Cooling Degree Days 12    
Growing Degree Days 26 (Base 50)    
Moisture  
Dew Point 70 °F    
Average Humidity 85    
Maximum Humidity 94    
Minimum Humidity 66    
Precipitation  
Precipitation 0.10 in - - ()
Sea Level Pressure  
Sea Level Pressure 30.11 in    
Wind  
Wind Speed 6 mph (SE)    
Max Wind Speed 15 mph    
Max Gust Speed 26 mph    
Visibility 9 miles    
Events Rain    
Averages and records for this station are not official NWS values.
T = Trace of Precipitation, MM = Missing Value Source: NWS Daily Summary

Daily Weather History Graph

Daily Weather History Graph

Search for Another Location

Airport or City:

Trip Planner

Search our weather history database for the weather conditions in past years. The results will help you decide how hot, cold, wet, or windy it might be!

Date:

Astronomy

Aug. 27, 2013 Rise Set
Actual Time 7:06 AM CDT 8:01 PM CDT
Civil Twilight 6:41 AM CDT 8:26 PM CDT
Nautical Twilight 6:12 AM CDT 8:55 PM CDT
Astronomical Twilight 5:42 AM CDT 9:25 PM CDT
Moon No Moon Rise 1:35 PM CDT (8/27)
Length of Visible Light 13h 44m
Length of Day
12h 54m
Waning Gibbous, 57% of the Moon is Illuminated
Aug 27
Waning Gibbous
Aug 28
Last Quarter
Sep 5
New
Sep 12
First Quarter
Sep 19
Full

Hourly Weather History & Observations

Time (CDT) Temp. Heat Index Dew Point Humidity Pressure Visibility Wind Dir Wind Speed Gust Speed Precip Events Conditions
12:51 AM 73.4 °F - 68.0 °F 83% 30.11 in 10.0 mi SSE 8.1 mph - N/A   Mostly Cloudy
12:53 AM 73.0 °F - 68.0 °F 84% 30.06 in 10.0 mi SSE 5.8 mph - N/A   Mostly Cloudy
1:53 AM 73.0 °F - 69.1 °F 87% 30.05 in 10.0 mi SE 8.1 mph - N/A   Overcast
2:23 AM 73.0 °F - 69.1 °F 87% 30.10 in 10.0 mi SE 6.9 mph - N/A   Overcast
2:53 AM 73.0 °F - 70.0 °F 90% 30.05 in 10.0 mi South 4.6 mph - N/A   Overcast
3:21 AM 73.0 °F - 70.0 °F 90% 30.11 in 10.0 mi SSE 6.9 mph - N/A   Overcast
3:53 AM 73.0 °F - 70.0 °F 90% 30.05 in 7.0 mi Variable 6.9 mph - N/A   Overcast
4:08 AM 73.0 °F - 70.0 °F 90% 30.11 in 10.0 mi South 6.9 mph - N/A   Overcast
4:53 AM 73.0 °F - 70.0 °F 90% 30.05 in 10.0 mi SSE 6.9 mph - N/A   Overcast
5:18 AM 73.0 °F - 70.0 °F 90% 30.10 in 10.0 mi SSE 6.9 mph - N/A   Overcast
5:28 AM 73.0 °F - 70.0 °F 90% 30.11 in 10.0 mi SSE 4.6 mph - N/A   Overcast
5:37 AM 73.9 °F - 70.0 °F 87% 30.11 in 10.0 mi SE 4.6 mph - N/A   Overcast
5:48 AM 73.4 °F - 69.8 °F 88% 30.11 in 10.0 mi SE 9.2 mph - N/A   Overcast
5:53 AM 73.0 °F - 70.0 °F 90% 30.05 in 10.0 mi SSE 6.9 mph - N/A   Overcast
6:19 AM 73.0 °F - 70.0 °F 90% 30.11 in 9.0 mi SE 5.8 mph - N/A   Overcast
6:53 AM 73.0 °F - 69.1 °F 87% 30.07 in 10.0 mi SE 4.6 mph - N/A   Overcast
7:05 AM 73.0 °F - 69.1 °F 87% 30.13 in 10.0 mi SE 4.6 mph - N/A   Overcast
7:53 AM 73.9 °F - 70.0 °F 87% 30.09 in 10.0 mi SSE 4.6 mph - N/A   Overcast
8:53 AM 73.9 °F - 70.0 °F 87% 30.11 in 10.0 mi SE 6.9 mph - N/A   Overcast
9:48 AM 75.2 °F - 69.8 °F 83% 30.17 in 9.0 mi SSE 8.1 mph - N/A   Overcast
9:53 AM 75.9 °F - 70.0 °F 82% 30.12 in 9.0 mi SSE 6.9 mph - N/A   Overcast
10:53 AM 75.9 °F - 71.1 °F 85% 30.13 in 8.0 mi ESE 6.9 mph - 0.00 in   Overcast
11:22 AM 75.9 °F - 72.0 °F 87% 30.19 in 2.5 mi SSE 8.1 mph - 0.01 in Rain Rain
11:30 AM 75.0 °F - 73.0 °F 94% 30.18 in 1.8 mi SE 3.5 mph - 0.03 in Rain Light Rain
11:33 AM 75.9 °F - 73.0 °F 91% 30.18 in 2.5 mi SE 5.8 mph - 0.03 in Rain Light Rain
11:40 AM 77.0 °F - 73.9 °F 90% 30.18 in 6.0 mi Calm Calm - 0.03 in Rain Light Rain
11:42 AM 77.0 °F - 73.9 °F 90% 30.18 in 7.0 mi SE 4.6 mph - 0.03 in Rain Light Rain
11:53 AM 77.0 °F - 73.9 °F 90% 30.13 in 9.0 mi SSE 4.6 mph - 0.03 in   Overcast
12:00 PM 78.1 °F - 73.0 °F 84% 30.17 in 10.0 mi SE 10.4 mph - N/A   Mostly Cloudy
12:13 PM 79.0 °F - 73.9 °F 84% 30.17 in 10.0 mi South 9.2 mph - N/A   Overcast
12:39 PM 80.1 °F 83.8 °F 72.0 °F 76% 30.16 in 10.0 mi South 8.1 mph - N/A   Mostly Cloudy
12:53 PM 79.0 °F - 72.0 °F 79% 30.11 in 10.0 mi Variable 6.9 mph - 0.00 in Rain Light Rain
1:11 PM 75.0 °F - 71.1 °F 87% 30.17 in 1.8 mi South 15.0 mph 26.5 mph 0.04 in Rain Heavy Rain
1:14 PM 73.9 °F - 71.1 °F 91% 30.17 in 1.2 mi SSE 6.9 mph 26.5 mph 0.07 in Rain Heavy Rain
1:21 PM 73.9 °F - 71.1 °F 91% 30.16 in 2.0 mi South 5.8 mph - 0.07 in Rain Light Rain
1:28 PM 73.9 °F - 70.0 °F 87% 30.16 in 10.0 mi South 6.9 mph - 0.07 in   Overcast
1:53 PM 75.0 °F - 70.0 °F 84% 30.10 in 10.0 mi South 3.5 mph - 0.07 in Rain Light Rain
2:53 PM 79.0 °F - 73.0 °F 82% 30.08 in 10.0 mi Variable 4.6 mph - 0.00 in   Scattered Clouds
3:53 PM 77.0 °F - 69.1 °F 76% 30.09 in 10.0 mi SSE 10.4 mph 17.3 mph N/A   Partly Cloudy
4:53 PM 73.9 °F - 70.0 °F 87% 30.07 in 8.0 mi ENE 3.5 mph - 0.00 in Rain Light Rain
5:53 PM 77.0 °F - 71.1 °F 82% 30.05 in 10.0 mi Calm Calm - 0.00 in   Scattered Clouds
6:53 PM 78.1 °F - 69.1 °F 74% 30.03 in 10.0 mi ESE 5.8 mph - N/A   Clear
7:53 PM 77.0 °F - 66.0 °F 69% 30.03 in 10.0 mi East 3.5 mph - N/A   Clear
8:53 PM 75.0 °F - 64.9 °F 71% 30.04 in 10.0 mi ENE 4.6 mph - N/A   Clear
9:53 PM 75.0 °F - 63.0 °F 66% 30.06 in 10.0 mi East 3.5 mph - N/A   Clear
10:53 PM 73.9 °F - 64.9 °F 73% 30.06 in 10.0 mi East 3.5 mph - N/A   Clear
11:53 PM 73.0 °F - 66.9 °F 81% 30.06 in 10.0 mi Variable 3.5 mph - N/A   Clear